Content
SEND FEEDBACK

Daily
Averages
Monthly
Summary
United States of America

ANN ARBOR, MICHIGAN


Home > North America > United States > Michigan
Elevation: 759 feet     Latitude: 42 17N     Longitude: 083 43W

WEATHER
 
SELECT A DAY
Number of Records: 202,962;   Date Range: 1/1/95 - 7/7/14
 
SHARE

PRINT THIS DATA

[ ← Previous Day ]
WEATHER ALMANAC - JANUARY 3, 2014
[ Next Day → ]
[ °C ]   °F
Weather ElementAverageHighLow
Temperature4.8 °F10.9 °F (1:53 pm)-7.1 °F (8:53 am)
Dewpoint-4.6 °F (9:53 pm)-11 °F (8:53 am)
Humidity65.8 %83 % (8:53 am)51 % (1:53 pm)
Barometer30.37 in30.46 in (9:53 am)30.19 in (11:53 pm)
Wind Speed7.9 mph17.3 mph (10:53 pm)
Wind Gust21.9 mph (10:53 pm)
Weather ElementAverage
Visibility10 mi
Wind DirectionSSW (202.2 °)

Weather ElementTotal
Precipitation---
Heating Degree Days63.1 (Base 65)
Averaged from 23 records on January 3, 2014
WEATHER CONDITIONS BREAKOUT
WIND DIRECTION BREAKOUT
WEATHER BY HOUR - JANUARY 3, 2014
[ °C ]   °F
Local TimeTemperatureDewpointHumidityBarometerVisibilityWind DirectionWind SpeedGust SpeedPrecipitationEventsConditions
1:53 AM1.0 °F-7.1 °F69 %30.32 in10.0 miNNW (340°)6.9 mphClear
2:53 AM0.0 °F-7.1 °F72 %30.36 in10.0 miNW (320°)8.1 mphClear
3:53 AM-0.9 °F-8.0 °F72 %30.38 in10.0 miNNW (330°)10.4 mphClear
4:53 AM-2.0 °F-8.0 °F76 %30.40 in10.0 miNNW (340°)9.2 mphClear
5:53 AM-2.0 °F-8.0 °F76 %30.41 in10.0 miNNW (330°)8.1 mphClear
6:53 AM-2.0 °F-8.0 °F76 %30.44 in10.0 miNNW (330°)6.9 mphClear
7:53 AM-2.9 °F-8.0 °F79 %30.44 in10.0 miNW (320°)3.5 mphClear
8:53 AM-7.1 °F-11.0 °F83 %30.45 in10.0 miCalmClear
9:53 AM1.0 °F-6.0 °F72 %30.46 in10.0 miCalmClear
10:53 AM3.9 °F-5.1 °F66 %30.46 in10.0 miCalm0.00 inClear
11:53 AM9.0 °F-2.9 °F59 %30.45 in10.0 miCalmClear
12:53 PM10.0 °F-2.0 °F58 %30.43 in10.0 miSW (230°)8.1 mphClear
1:53 PM10.9 °F-4.0 °F51 %30.40 in10.0 miSouth (180°)9.2 mphClear
2:53 PM10.9 °F-4.0 °F51 %30.41 in10.0 miSW (220°)9.2 mphClear
3:53 PM10.0 °F-4.0 °F53 %30.40 in10.0 miSouth (190°)9.2 mphClear
4:53 PM8.1 °F-4.0 °F58 %30.38 in10.0 miSouth (190°)10.4 mphClear
5:53 PM7.0 °F-2.9 °F64 %30.36 in10.0 miSSW (200°)9.2 mphOvercast
6:53 PM8.1 °F-2.0 °F64 %30.35 in10.0 miSouth (190°)10.4 mphMostly Cloudy
7:53 PM8.1 °F-2.9 °F61 %30.34 in10.0 miSouth (190°)10.4 mphOvercast
8:53 PM9.0 °F-0.9 °F64 %30.30 in10.0 miSouth (180°)9.2 mphOvercast
9:53 PM10.0 °F0.0 °F64 %30.25 in10.0 miSouth (190°)11.5 mphClear
10:53 PM10.9 °F0.0 °F61 %30.22 in10.0 miSouth (190°)17.3 mph21.9 mphClear
11:53 PM10.0 °F0.0 °F64 %30.19 in10.0 miSouth (190°)13.8 mph19.6 mphClear
Hourly data recorded from KARB, located miles away from Ann Arbor, Michigan







STORIES FROM OUR PARTNERS